Location: Unspecified
(0.0000°N, 0.0000°E)
Time: 05:49:02
(UTC+00:00)

Envisat - Pass Details

Date: 03 August 2020
Orbit: 764 x 766 km, 98.1° (Epoch: 13 August)

Event Time Altitude Azimuth Distance (km) Brightness Sun altitude
Rises 04:51:06 0° 42° (NE) 3,215 7.3 -17.9°
Reaches altitude 10° 04:54:08 10° 61° (ENE) 2,293 6.7 -17.2°
Maximum altitude 04:57:26 18° 102° (ESE) 1,825 5.7 -16.4°
Drops below altitude 10° 05:00:44 10° 144° (SE) 2,300 5.7 -15.6°
Sets 05:03:46 0° 162° (SSE) 3,229 6.2 -14.9°
